Date String (YYYY-MM-DD hh:mm:ss) UTC,Instrument flags,Ambient pressure (hPa),Sample flow (lpm),Bypass flow (lpm),Sample temperature (°C),Ambient temperature (°C),ASC tube jacket temperature (°C),LED temperature (°C),Box temperature (°C),Sample RH (%),Span deviation,Mass concentration (μg/m³),Mass concentration (μg/m³),Mass concentration (μg/m³)
DateTimeUTC,F1_M11,P_M11,Q1_M11,Q2_M11,T1_M11,T2_M11,T3_M11,T4_M11,T5_M11,U1_M11,ZSPAN_M11,X2_M11,X0_M11,X1_M11
2023-05-07 07:00:00,,0826.8,5.01,0.00,29.3,27.8,00.0,37.7,30.8,09.2,0000.0,0003.04,0008.26,0001.67
2023-05-07 07:01:00,,0826.8,5.00,0.00,29.3,27.8,00.0,37.7,30.8,08.9,0000.0,0003.01,0008.41,0001.67
2023-05-07 07:02:00,,0826.8,4.99,0.00,29.3,27.8,00.0,37.7,30.8,08.9,0000.0,0002.99,0008.62,0001.68
2023-05-07 07:03:00,,0826.8,5.01,0.00,29.3,27.8,00.0,37.7,30.8,09.4,0000.0,0003.12,0009.15,0001.72
2023-05-07 07:04:00,,0826.8,5.00,0.00,29.3,27.8,00.0,37.7,30.8,09.3,0000.0,0003.12,0009.03,0001.74
2023-05-07 07:05:00,,0826.9,5.00,0.00,29.3,27.8,00.0,37.7,30.8,09.2,0000.0,0003.12,0009.33,0001.75
2023-05-07 07:06:00,,0826.9,5.00,0.00,29.3,27.8,00.0,37.7,30.8,09.4,0000.0,0003.10,0010.08,0001.77
2023-05-07 07:07:00,,0826.9,5.00,0.00,29.3,27.8,00.0,37.7,30.8,09.5,0000.0,0003.12,0010.07,0001.79
2023-05-07 07:08:00,,0826.9,5.01,0.00,29.3,27.9,00.0,37.7,30.8,09.6,0000.0,0003.11,0009.92,0001.81
2023-05-07 07:09:00,,0827.0,5.00,0.00,29.3,27.9,00.0,37.7,30.8,09.7,0000.0,0003.13,0010.02,0001.84
2023-05-07 07:10:00,,0827.0,5.01,0.00,29.3,27.9,00.0,37.7,30.8,09.7,0000.0,0003.19,0010.28,0001.89
2023-05-07 07:11:00,,0827.0,4.99,0.00,29.3,27.9,00.0,37.7,30.8,09.7,0000.0,0003.22,0010.10,0001.92
2023-05-07 07:12:00,,0827.0,4.99,0.00,29.3,27.9,00.0,37.7,30.8,09.7,0000.0,0003.26,0010.17,0001.97
2023-05-07 07:13:00,,0827.0,5.00,0.00,29.3,27.9,00.0,37.7,30.9,09.6,0000.0,0003.33,0009.76,0002.04
2023-05-07 07:14:00,,0827.0,5.01,0.00,29.3,27.8,00.0,37.7,30.9,09.7,0000.0,0003.34,0009.38,0002.10
2023-05-07 07:15:00,,0827.1,5.01,0.00,29.3,27.8,00.0,37.7,30.9,09.7,0000.0,0003.38,0009.73,0002.14
2023-05-07 07:16:00,,0827.1,4.98,0.00,29.3,27.8,00.0,37.7,30.9,09.8,0000.0,0003.44,0009.70,0002.20
2023-05-07 07:17:00,,0827.1,5.00,0.00,29.3,27.7,00.0,37.7,30.9,09.9,0000.0,0003.49,0008.96,0002.25
2023-05-07 07:18:00,,0827.1,5.01,0.00,29.3,27.7,00.0,37.7,30.9,10.0,0000.0,0003.50,0008.87,0002.29
2023-05-07 07:19:00,,0827.1,5.01,0.00,29.3,27.7,00.0,37.7,30.9,10.0,0000.0,0003.55,0008.93,0002.33
2023-05-07 07:20:00,,0827.1,5.00,0.00,29.3,27.7,00.0,37.7,30.9,10.1,0000.0,0003.61,0009.15,0002.37
2023-05-07 07:21:00,,0827.1,4.98,0.00,29.3,27.7,00.0,37.7,30.9,10.1,0000.0,0003.64,0009.05,0002.38
2023-05-07 07:22:00,,0827.1,5.00,0.00,29.3,27.7,00.0,37.7,30.9,10.1,0000.0,0003.64,0008.67,0002.39
2023-05-07 07:23:00,,0827.1,5.01,0.00,29.3,27.7,00.0,37.7,30.8,10.1,0000.0,0003.65,0008.70,0002.42
2023-05-07 07:24:00,,0827.1,5.01,0.00,29.3,27.6,00.0,37.7,30.8,10.2,0000.0,0003.63,0008.99,0002.42
2023-05-07 07:25:00,,0827.2,4.99,0.00,29.3,27.6,00.0,37.7,30.8,10.2,0000.0,0003.61,0008.85,0002.41
2023-05-07 07:26:00,,0827.1,5.00,0.00,29.3,27.6,00.0,37.7,30.8,10.1,0000.0,0003.56,0008.50,0002.41
2023-05-07 07:27:00,,0827.1,4.99,0.00,29.3,27.6,00.0,37.7,30.7,10.1,0000.0,0003.53,0008.35,0002.40
2023-05-07 07:28:00,,0827.1,5.01,0.00,29.2,27.5,00.0,37.7,30.7,10.1,0000.0,0003.54,0008.30,0002.39
2023-05-07 07:29:00,,0827.1,5.00,0.00,29.2,27.5,00.0,37.6,30.7,10.1,0000.0,0003.56,0008.29,0002.38
2023-05-07 07:30:00,,0827.2,5.00,0.00,29.2,27.5,00.0,37.6,30.7,10.0,0000.0,0003.54,0008.29,0002.38
2023-05-07 07:31:00,,0827.1,5.00,0.00,29.2,27.4,00.0,37.6,30.7,10.0,0000.0,0003.51,0008.06,0002.38
2023-05-07 07:32:00,,0827.2,5.00,0.00,29.1,27.4,00.0,37.6,30.6,10.0,0000.0,0003.50,0007.67,0002.38
2023-05-07 07:33:00,,0827.2,4.99,0.00,29.1,27.4,00.0,37.6,30.5,10.0,0000.0,0003.51,0007.75,0002.39
2023-05-07 07:34:00,,0827.2,5.00,0.00,29.1,27.3,00.0,37.6,30.5,10.1,0000.0,0003.51,0007.36,0002.38
2023-05-07 07:35:00,,0827.3,5.00,0.00,29.1,27.3,00.0,37.6,30.5,10.1,0000.0,0003.50,0007.10,0002.37
2023-05-07 07:36:00,,0827.3,4.99,0.00,29.0,27.3,00.0,37.6,30.5,10.2,0000.0,0003.48,0006.97,0002.37
2023-05-07 07:37:00,,0827.3,4.99,0.00,29.0,27.2,00.0,37.5,30.5,10.2,0000.0,0003.49,0007.01,0002.38
2023-05-07 07:38:00,,0827.3,5.00,0.00,29.0,27.2,00.0,37.5,30.5,10.3,0000.0,0003.52,0008.23,0002.39
2023-05-07 07:39:00,,0827.3,5.01,0.00,29.0,27.2,00.0,37.5,30.5,10.3,0000.0,0003.52,0009.36,0002.39
2023-05-07 07:40:00,,0827.3,5.01,0.00,29.0,27.2,00.0,37.5,30.5,10.2,0000.0,0003.52,0009.49,0002.40
2023-05-07 07:41:00,,0827.3,5.01,0.00,29.0,27.2,00.0,37.5,30.5,10.3,0000.0,0003.50,0009.48,0002.40
2023-05-07 07:42:00,,0827.3,5.00,0.00,29.0,27.2,00.0,37.5,30.5,10.3,0000.0,0003.54,0009.62,0002.40
2023-05-07 07:43:00,,0827.3,5.00,0.00,29.0,27.3,00.0,37.5,30.5,10.3,0000.0,0003.58,0009.70,0002.41
2023-05-07 07:44:00,,0827.4,4.99,0.00,29.0,27.3,00.0,37.5,30.5,10.3,0000.0,0003.64,0009.96,0002.40
2023-05-07 07:45:00,,0827.4,5.00,0.00,29.0,27.3,00.0,37.4,30.5,10.3,0000.0,0003.66,0010.71,0002.40
2023-05-07 07:46:00,,0827.4,5.00,0.00,29.0,27.3,00.0,37.4,30.5,10.3,0000.0,0003.71,0011.02,0002.43
2023-05-07 07:47:00,,0827.4,5.01,0.00,29.0,27.3,00.0,37.4,30.5,10.2,0000.0,0003.76,0011.24,0002.42
2023-05-07 07:48:00,,0827.4,5.00,0.00,28.9,27.2,00.0,37.4,30.5,10.4,0000.0,0003.75,0011.22,0002.42
2023-05-07 07:49:00,,0827.4,5.00,0.00,28.9,27.2,00.0,37.4,30.5,10.4,0000.0,0003.74,0010.18,0002.44
2023-05-07 07:50:00,,0827.4,5.00,0.00,28.9,27.3,00.0,37.4,30.5,10.4,0000.0,0003.76,0009.10,0002.45
2023-05-07 07:51:00,,0827.4,5.00,0.00,28.9,27.3,00.0,37.4,30.5,10.5,0000.0,0003.78,0009.19,0002.45
2023-05-07 07:52:00,,0827.4,5.00,0.00,29.0,27.3,00.0,37.4,30.5,10.5,0000.0,0003.79,0009.46,0002.47
2023-05-07 07:53:00,,0827.4,5.00,0.00,29.0,27.3,00.0,37.4,30.5,10.5,0000.0,0003.76,0009.42,0002.47
2023-05-07 07:54:00,,0827.4,5.00,0.00,29.0,27.4,00.0,37.4,30.4,10.5,0000.0,0003.70,0010.00,0002.47
2023-05-07 07:55:00,,0827.4,5.00,0.00,29.0,27.4,00.0,37.4,30.4,10.4,0000.0,0003.65,0010.14,0002.48
2023-05-07 07:56:00,,0827.6,4.99,0.00,29.0,27.4,00.0,37.4,30.4,10.3,0000.0,0003.64,0009.56,0002.47
2023-05-07 07:57:00,,0827.7,4.99,0.00,29.0,27.4,00.0,37.4,30.4,10.3,0000.0,0003.66,0010.37,0002.46
2023-05-07 07:58:00,,0827.7,5.00,0.00,29.0,27.4,00.0,37.4,30.5,10.3,0000.0,0003.68,0011.12,0002.49
2023-05-07 07:59:00,,0827.5,5.00,0.00,29.0,27.4,00.0,37.4,30.5,10.2,0000.0,0003.72,0011.95,0002.48
